This is the latest recevied weather packets stored in our database for station/object K2ATL. If no packets are shown the sender has not sent any weather packets the latest 1 day(s).
| Time | Temp. | Humidity | Pressure | Rain* | Wind** | Luminosity | Snow |
|---|---|---|---|---|---|---|---|
| 1778027603 | 19.44° C | 50% | 1098.7 hPa | 0 mm | 1.34 m/s, 132° | 1 W/m² | - |
| 1778027300 | 19.44° C | 50% | 1098.8 hPa | 0 mm | 0.89 m/s, 143° | 2 W/m² | - |
| 1778026996 | 19.44° C | 50% | 1098.8 hPa | 0 mm | 0.89 m/s, 119° | 3 W/m² | - |
| 1778026692 | 19.44° C | 50% | 1098.7 hPa | 0 mm | 1.34 m/s, 131° | 4 W/m² | - |
| 1778026389 | 19.44° C | 50% | 1098.8 hPa | 0 mm | 0.89 m/s, 137° | 6 W/m² | - |
| 1778026086 | 20° C | 50% | 1098.6 hPa | 0 mm | 1.34 m/s, 136° | 7 W/m² | - |
| 1778025784 | 20° C | 49% | 1098.7 hPa | 0 mm | 1.34 m/s, 119° | 9 W/m² | - |
| 1778025480 | 20° C | 49% | 1098.6 hPa | 0 mm | 0.45 m/s, 151° | 12 W/m² | - |
| 1778025178 | 20° C | 49% | 1098.7 hPa | 0 mm | 0.45 m/s, 128° | 17 W/m² | - |
| 1778024875 | 20.56° C | 48% | 1098.6 hPa | 0 mm | 0.89 m/s, 142° | 30 W/m² | - |
| 1778024573 | 20° C | 48% | 1098.6 hPa | 0 mm | 0.89 m/s, 141° | 40 W/m² | - |
| 1778024269 | 20° C | 48% | 1098.6 hPa | 0 mm | 0.89 m/s, 136° | 27 W/m² | - |
| 1778023967 | 20° C | 49% | 1098.7 hPa | 0 mm | 0.45 m/s, 129° | 19 W/m² | - |
| 1778023664 | 20° C | 51% | 1098.4 hPa | 0 mm | 0 m/s | 18 W/m² | - |
| 1778023361 | 20.56° C | 50% | 1098.3 hPa | 0 mm | 0.45 m/s, 149° | 22 W/m² | - |
| 1778023057 | 20° C | 49% | 1098.4 hPa | 0 mm | 0.45 m/s, 146° | 32 W/m² | - |
| 1778022757 | 20.56° C | 49% | 1098.3 hPa | 0 mm | 0 m/s | 33 W/m² | - |
| 1778022455 | 20.56° C | 48% | 1098.5 hPa | 0 mm | 0.45 m/s, 86° | 27 W/m² | - |
| 1778022151 | 21.11° C | 45% | 1099 hPa | 0 mm | 0.45 m/s, 133° | 26 W/m² | - |
| 1778021848 | 21.11° C | 46% | 1099 hPa | 0 mm | 0.45 m/s, 133° | 31 W/m² | - |
| 1778021545 | 21.11° C | 46% | 1099.1 hPa | 0 mm | 0 m/s | 37 W/m² | - |
| 1778021240 | 21.11° C | 44% | 1098.7 hPa | 0 mm | 0.45 m/s, 54° | 74 W/m² | - |
| 1778020938 | 21.11° C | 45% | 1098.7 hPa | 0 mm | 0.45 m/s, 146° | 121 W/m² | - |
| 1778020635 | 21.11° C | 44% | 1098.8 hPa | 0 mm | 0.89 m/s, 141° | 91 W/m² | - |
| 1778020331 | 21.11° C | 44% | 1098.9 hPa | 0 mm | 0.45 m/s, 130° | 95 W/m² | - |
* Rain latest hour (hover to see other rain measurements)
** Current wind speed in m/s (hover to see current wind gust speed)